This is the latest recevied weather packets stored in our database for station/object OE6PLD-13. If no packets are shown the sender has not sent any weather packets the latest 1 day(s).
| Time | Temp. | Humidity | Pressure | Rain* | Wind** | Luminosity | Snow |
|---|---|---|---|---|---|---|---|
| 1777992493 | 21.67° C | 45% | 1013.6 hPa | 0.76 mm | 3.58 m/s, 266° | 245 W/m² | - |
| 1777992309 | 21.67° C | 46% | 1013.6 hPa | 0.76 mm | 6.26 m/s, 266° | 160 W/m² | - |
| 1777992126 | 22.22° C | 44% | 1013.6 hPa | 0.76 mm | 2.68 m/s, 266° | 438 W/m² | - |
| 1777991943 | 21.67° C | 46% | 1013.6 hPa | 0.76 mm | 5.36 m/s, 266° | 333 W/m² | - |
| 1777991759 | 21.67° C | 45% | 1013.6 hPa | 0.76 mm | 1.79 m/s, 266° | 209 W/m² | - |
| 1777991576 | 21.67° C | 46% | 1013.6 hPa | 0.76 mm | 1.34 m/s, 266° | 183 W/m² | - |
| 1777991393 | 22.22° C | 44% | 1013.6 hPa | 0.76 mm | 6.71 m/s, 266° | 209 W/m² | - |
| 1777991209 | 22.78° C | 44% | 1013.8 hPa | 0.76 mm | 2.24 m/s, 266° | 330 W/m² | - |
| 1777991026 | 22.22° C | 43% | 1013.8 hPa | 0.76 mm | 4.47 m/s, 266° | 469 W/m² | - |
| 1777990842 | 22.22° C | 45% | 1013.7 hPa | 0.76 mm | 1.34 m/s, 266° | 316 W/m² | - |
| 1777990659 | 22.22° C | 45% | 1013.7 hPa | 0.76 mm | 4.92 m/s, 266° | 422 W/m² | - |
| 1777990476 | 22.22° C | 45% | 1013.7 hPa | 0.76 mm | 2.24 m/s, 266° | 323 W/m² | - |
| 1777990292 | 22.22° C | 46% | 1013.4 hPa | 0.76 mm | 0 m/s | 174 W/m² | - |
| 1777990109 | 22.22° C | 46% | 1013.4 hPa | 0.76 mm | 1.34 m/s, 266° | 164 W/m² | - |
| 1777989926 | 22.22° C | 46% | 1013.4 hPa | 0.76 mm | 3.13 m/s, 266° | 155 W/m² | - |
| 1777989742 | 22.78° C | 45% | 1013.6 hPa | 0.76 mm | 1.79 m/s, 266° | 191 W/m² | - |
| 1777989570 | 22.78° C | 44% | 1013.6 hPa | 0.76 mm | 1.34 m/s, 266° | 229 W/m² | - |
| 1777989376 | 22.78° C | 45% | 1013.6 hPa | 0.76 mm | 0.45 m/s, 266° | 273 W/m² | - |
| 1777989192 | 23.33° C | 44% | 1013.8 hPa | 0.76 mm | 5.81 m/s, 266° | 275 W/m² | - |
| 1777989009 | 23.33° C | 45% | 1013.5 hPa | 0.76 mm | 2.24 m/s, 266° | 294 W/m² | - |
| 1777988826 | 22.78° C | 45% | 1013.6 hPa | 0.76 mm | 1.34 m/s, 266° | 376 W/m² | - |
| 1777988642 | 22.78° C | 44% | 1013.7 hPa | 0.76 mm | 3.58 m/s, 266° | 256 W/m² | - |
| 1777988459 | 22.78° C | 44% | 1014 hPa | 0.76 mm | 3.58 m/s, 266° | 264 W/m² | - |
| 1777988276 | 22.78° C | 45% | 1013.7 hPa | 0.76 mm | 1.34 m/s, 266° | 260 W/m² | - |
| 1777988092 | 22.78° C | 44% | 1013.7 hPa | 0.76 mm | 0.89 m/s, 266° | 189 W/m² | - |
* Rain latest hour (hover to see other rain measurements)
** Current wind speed in m/s (hover to see current wind gust speed)